Year,Month,Day,Hour,Minute,Value (Times are PST for temperature in C)
2006,09,24,00,00,10.70
2006,09,24,00,01,10.70
2006,09,24,00,02,10.70
2006,09,24,00,03,10.60
2006,09,24,00,04,10.60
2006,09,24,00,05,10.60
2006,09,24,00,06,10.60
2006,09,24,00,07,10.60
2006,09,24,00,08,10.60
2006,09,24,00,09,10.60
2006,09,24,00,10,10.50
2006,09,24,00,11,10.50
2006,09,24,00,12,10.50
2006,09,24,00,13,10.40
2006,09,24,00,14,10.40
2006,09,24,00,15,10.40
2006,09,24,00,16,10.40
2006,09,24,00,17,10.40
2006,09,24,00,18,10.40
2006,09,24,00,19,10.40
2006,09,24,00,20,10.30
2006,09,24,00,21,10.30
2006,09,24,00,22,10.30
2006,09,24,00,23,10.30
2006,09,24,00,24,10.30
2006,09,24,00,25,10.30
2006,09,24,00,26,10.30
2006,09,24,00,27,10.30
2006,09,24,00,28,10.30
2006,09,24,00,29,10.30
2006,09,24,00,30,10.30
2006,09,24,00,31,10.20
2006,09,24,00,32,10.20
2006,09,24,00,33,10.20
2006,09,24,00,34,10.20
2006,09,24,00,35,10.20
2006,09,24,00,36,10.20
2006,09,24,00,37,10.20
2006,09,24,00,38,10.20
2006,09,24,00,39,10.10
2006,09,24,00,40,10.20
2006,09,24,00,41,10.20
2006,09,24,00,42,10.20
2006,09,24,00,43,10.20
2006,09,24,00,44,10.10
2006,09,24,00,45,10.10
2006,09,24,00,46,10.10
2006,09,24,00,47,10.10
2006,09,24,00,48,10.10
2006,09,24,00,49,10.10
2006,09,24,00,50,10.10
2006,09,24,00,51,10.10
2006,09,24,00,52,10.10
2006,09,24,00,53,10.10
2006,09,24,00,54,10.10
2006,09,24,00,55,10.10
2006,09,24,00,56,10.10
2006,09,24,00,57,10.10
2006,09,24,00,58,10.00
2006,09,24,00,59,10.00
2006,09,24,01,00,10.00
2006,09,24,01,01,10.00
2006,09,24,01,02,9.90
2006,09,24,01,03,9.90
2006,09,24,01,04,9.90
2006,09,24,01,05,9.90
2006,09,24,01,06,9.90
2006,09,24,01,07,9.90
2006,09,24,01,08,9.90
2006,09,24,01,09,9.90
2006,09,24,01,10,9.90
2006,09,24,01,11,9.90
2006,09,24,01,12,9.90
2006,09,24,01,13,9.90
2006,09,24,01,14,9.80
2006,09,24,01,15,9.80
2006,09,24,01,16,9.80
2006,09,24,01,17,9.80
2006,09,24,01,18,9.80
2006,09,24,01,19,9.80
2006,09,24,01,20,9.80
2006,09,24,01,21,9.70
2006,09,24,01,22,9.70
2006,09,24,01,23,9.70
2006,09,24,01,24,9.70
2006,09,24,01,25,9.70
2006,09,24,01,26,9.60
2006,09,24,01,27,9.60
2006,09,24,01,28,9.60
2006,09,24,01,29,9.60
2006,09,24,01,30,9.60
2006,09,24,01,31,9.60
2006,09,24,01,32,9.60
2006,09,24,01,33,9.60
2006,09,24,01,34,9.60
2006,09,24,01,35,9.60
2006,09,24,01,36,9.60
2006,09,24,01,37,9.60
2006,09,24,01,38,9.60
2006,09,24,01,39,9.60
2006,09,24,01,40,9.60
2006,09,24,01,41,9.60
2006,09,24,01,42,9.60
2006,09,24,01,43,9.60
2006,09,24,01,44,9.60
2006,09,24,01,45,9.60
2006,09,24,01,46,9.60
2006,09,24,01,47,9.60
2006,09,24,01,48,9.60
2006,09,24,01,49,9.60
2006,09,24,01,50,9.60
2006,09,24,01,51,9.60
2006,09,24,01,52,9.60
2006,09,24,01,53,9.60
2006,09,24,01,54,9.60
2006,09,24,01,55,9.60
2006,09,24,01,56,9.60
2006,09,24,01,57,9.60
2006,09,24,01,58,9.50
2006,09,24,01,59,9.50
2006,09,24,02,00,9.50
2006,09,24,02,01,9.50
2006,09,24,02,02,9.40
2006,09,24,02,03,9.40
2006,09,24,02,04,9.40
2006,09,24,02,05,9.40
2006,09,24,02,06,9.40
2006,09,24,02,07,9.50
2006,09,24,02,08,9.40
2006,09,24,02,09,9.50
2006,09,24,02,10,9.40
2006,09,24,02,11,9.50
2006,09,24,02,12,9.40
2006,09,24,02,13,9.40
2006,09,24,02,14,9.40
2006,09,24,02,15,9.40
2006,09,24,02,16,9.40
2006,09,24,02,17,9.40
2006,09,24,02,18,9.40
2006,09,24,02,19,9.40
2006,09,24,02,20,9.50
2006,09,24,02,21,9.50
2006,09,24,02,22,9.50
2006,09,24,02,23,9.50
2006,09,24,02,24,9.50
2006,09,24,02,25,9.50
2006,09,24,02,26,9.40
2006,09,24,02,27,9.40
2006,09,24,02,28,9.40
2006,09,24,02,29,9.40
2006,09,24,02,30,9.40
2006,09,24,02,31,9.40
2006,09,24,02,32,9.30
2006,09,24,02,33,9.30
2006,09,24,02,34,9.30
2006,09,24,02,35,9.30
2006,09,24,02,36,9.30
2006,09,24,02,37,9.30
2006,09,24,02,38,9.20
2006,09,24,02,39,9.20
2006,09,24,02,40,9.20
2006,09,24,02,41,9.20
2006,09,24,02,42,9.20
2006,09,24,02,43,9.20
2006,09,24,02,44,9.20
2006,09,24,02,45,9.20
2006,09,24,02,46,9.20
2006,09,24,02,47,9.20
2006,09,24,02,48,9.20
2006,09,24,02,49,9.20
2006,09,24,02,50,9.20
2006,09,24,02,51,9.20
2006,09,24,02,52,9.10
2006,09,24,02,53,9.10
2006,09,24,02,54,9.10
2006,09,24,02,55,9.10
2006,09,24,02,56,9.10
2006,09,24,02,57,9.00
2006,09,24,02,58,9.00
2006,09,24,02,59,9.00
2006,09,24,03,00,9.00
2006,09,24,03,01,8.90
2006,09,24,03,02,8.90
2006,09,24,03,03,8.90
2006,09,24,03,04,8.90
2006,09,24,03,05,8.90
2006,09,24,03,06,8.90
2006,09,24,03,07,8.90
2006,09,24,03,08,8.90
2006,09,24,03,09,8.90
2006,09,24,03,10,8.90
2006,09,24,03,11,8.90
2006,09,24,03,12,8.90
2006,09,24,03,13,8.90
2006,09,24,03,14,8.90
2006,09,24,03,15,8.90
2006,09,24,03,16,8.90
2006,09,24,03,17,8.80
2006,09,24,03,18,8.80
2006,09,24,03,19,8.80
2006,09,24,03,20,8.80
2006,09,24,03,21,8.80
2006,09,24,03,22,8.80
2006,09,24,03,23,8.80
2006,09,24,03,24,8.80
2006,09,24,03,25,8.80
2006,09,24,03,26,8.80
2006,09,24,03,27,8.80
2006,09,24,03,28,8.80
2006,09,24,03,29,8.80
2006,09,24,03,30,8.80
2006,09,24,03,31,8.80
2006,09,24,03,32,8.80
2006,09,24,03,33,8.80
2006,09,24,03,34,8.80
2006,09,24,03,35,8.80
2006,09,24,03,36,8.80
2006,09,24,03,37,8.80
2006,09,24,03,38,8.80
2006,09,24,03,39,8.70
2006,09,24,03,40,8.70
2006,09,24,03,41,8.70
2006,09,24,03,42,8.70
2006,09,24,03,43,8.70
2006,09,24,03,44,8.70
2006,09,24,03,45,8.70
2006,09,24,03,46,8.70
2006,09,24,03,47,8.70
2006,09,24,03,48,8.70
2006,09,24,03,49,8.70
2006,09,24,03,50,8.70
2006,09,24,03,51,8.70
2006,09,24,03,52,8.70
2006,09,24,03,53,8.70
2006,09,24,03,54,8.70
2006,09,24,03,55,8.70
2006,09,24,03,56,8.70
2006,09,24,03,57,8.70
2006,09,24,03,58,8.70
2006,09,24,03,59,8.70
2006,09,24,04,00,8.60
2006,09,24,04,01,8.60
2006,09,24,04,02,8.60
2006,09,24,04,03,8.60
2006,09,24,04,04,8.60
2006,09,24,04,05,8.60
2006,09,24,04,06,8.60
2006,09,24,04,07,8.60
2006,09,24,04,08,8.60
2006,09,24,04,09,8.60
2006,09,24,04,10,8.60
2006,09,24,04,11,8.60
2006,09,24,04,12,8.60
2006,09,24,04,13,8.60
2006,09,24,04,14,8.60
2006,09,24,04,15,8.60
2006,09,24,04,16,8.60
2006,09,24,04,17,8.60
2006,09,24,04,18,8.50
2006,09,24,04,19,8.50
2006,09,24,04,20,8.50
2006,09,24,04,21,8.50
2006,09,24,04,22,8.50
2006,09,24,04,23,8.50
2006,09,24,04,24,8.50
2006,09,24,04,25,8.40
2006,09,24,04,26,8.40
2006,09,24,04,27,8.40
2006,09,24,04,28,8.40
2006,09,24,04,29,8.40
2006,09,24,04,30,8.40
2006,09,24,04,31,8.40
2006,09,24,04,32,8.40
2006,09,24,04,33,8.40
2006,09,24,04,34,8.40
2006,09,24,04,35,8.40
2006,09,24,04,36,8.40
2006,09,24,04,37,8.40
2006,09,24,04,38,8.40
2006,09,24,04,39,8.40
2006,09,24,04,40,8.40
2006,09,24,04,41,8.40
2006,09,24,04,42,8.40
2006,09,24,04,43,8.40
2006,09,24,04,44,8.40
2006,09,24,04,45,8.40
2006,09,24,04,46,8.40
2006,09,24,04,47,8.40
2006,09,24,04,48,8.40
2006,09,24,04,49,8.40
2006,09,24,04,50,8.40
2006,09,24,04,51,8.40
2006,09,24,04,52,8.40
2006,09,24,04,53,8.40
2006,09,24,04,54,8.40
2006,09,24,04,55,8.40
2006,09,24,04,56,8.40
2006,09,24,04,57,8.40
2006,09,24,04,58,8.40
2006,09,24,04,59,8.40
2006,09,24,05,00,8.30
2006,09,24,05,01,8.30
2006,09,24,05,02,8.30
2006,09,24,05,03,8.30
2006,09,24,05,04,8.30
2006,09,24,05,05,8.30
2006,09,24,05,06,8.30
2006,09,24,05,07,8.20
2006,09,24,05,08,8.20
2006,09,24,05,09,8.20
2006,09,24,05,10,8.20
2006,09,24,05,11,8.20
2006,09,24,05,12,8.20
2006,09,24,05,13,8.20
2006,09,24,05,14,8.20
2006,09,24,05,15,8.20
2006,09,24,05,16,8.20
2006,09,24,05,17,8.20
2006,09,24,05,18,8.20
2006,09,24,05,19,8.20
2006,09,24,05,20,8.20
2006,09,24,05,21,8.20
2006,09,24,05,22,8.20
2006,09,24,05,23,8.20
2006,09,24,05,24,8.20
2006,09,24,05,25,8.20
2006,09,24,05,26,8.20
2006,09,24,05,27,8.20
2006,09,24,05,28,8.20
2006,09,24,05,29,8.20
2006,09,24,05,30,8.20
2006,09,24,05,31,8.20
2006,09,24,05,32,8.20
2006,09,24,05,33,8.20
2006,09,24,05,34,8.20
2006,09,24,05,35,8.20
2006,09,24,05,36,8.20
2006,09,24,05,37,8.20
2006,09,24,05,38,8.10
2006,09,24,05,39,8.10
2006,09,24,05,40,8.10
2006,09,24,05,41,8.10
2006,09,24,05,42,8.10
2006,09,24,05,43,8.10
2006,09,24,05,44,8.00
2006,09,24,05,45,8.00
2006,09,24,05,46,8.10
2006,09,24,05,47,8.10
2006,09,24,05,48,8.10
2006,09,24,05,49,8.10
2006,09,24,05,50,8.10
2006,09,24,05,51,8.10
2006,09,24,05,52,8.10
2006,09,24,05,53,8.10
2006,09,24,05,54,8.10
2006,09,24,05,55,8.10
2006,09,24,05,56,8.10
2006,09,24,05,57,8.00
2006,09,24,05,58,8.00
2006,09,24,05,59,8.00
2006,09,24,06,00,8.00
2006,09,24,06,01,8.00
2006,09,24,06,02,8.00
2006,09,24,06,03,8.00
2006,09,24,06,04,7.90
2006,09,24,06,05,7.90
2006,09,24,06,06,7.90
2006,09,24,06,07,7.90
2006,09,24,06,08,7.90
2006,09,24,06,09,7.90
2006,09,24,06,10,7.90
2006,09,24,06,11,7.90
2006,09,24,06,12,7.90
2006,09,24,06,13,7.90
2006,09,24,06,14,7.90
2006,09,24,06,15,7.90
2006,09,24,06,16,7.90
2006,09,24,06,17,7.90
2006,09,24,06,18,7.90
2006,09,24,06,19,7.90
2006,09,24,06,20,7.90
2006,09,24,06,21,7.80
2006,09,24,06,22,7.80
2006,09,24,06,23,7.80
2006,09,24,06,24,7.80
2006,09,24,06,25,7.80
2006,09,24,06,26,7.80
2006,09,24,06,27,7.80
2006,09,24,06,28,7.80
2006,09,24,06,29,7.80
2006,09,24,06,30,7.80
2006,09,24,06,31,7.80
2006,09,24,06,32,7.80
2006,09,24,06,33,7.80
2006,09,24,06,34,7.80
2006,09,24,06,35,7.90
2006,09,24,06,36,7.90
2006,09,24,06,37,7.90
2006,09,24,06,38,7.90
2006,09,24,06,39,8.00
2006,09,24,06,40,8.00
2006,09,24,06,41,8.00
2006,09,24,06,42,8.10
2006,09,24,06,43,8.10
2006,09,24,06,44,8.10
2006,09,24,06,45,8.00
2006,09,24,06,46,8.00
2006,09,24,06,47,8.00
2006,09,24,06,48,8.00
2006,09,24,06,49,8.00
2006,09,24,06,50,8.00
2006,09,24,06,51,7.90
2006,09,24,06,52,7.90
2006,09,24,06,53,7.90
2006,09,24,06,54,7.90
2006,09,24,06,55,7.90
2006,09,24,06,56,7.90
2006,09,24,06,57,7.90
2006,09,24,06,58,7.90
2006,09,24,06,59,7.80
2006,09,24,07,00,7.80
2006,09,24,07,01,7.80
2006,09,24,07,02,7.80
2006,09,24,07,03,7.80
2006,09,24,07,04,7.80
2006,09,24,07,05,7.80
2006,09,24,07,06,7.80
2006,09,24,07,07,7.80
2006,09,24,07,08,7.80
2006,09,24,07,09,7.80
2006,09,24,07,10,7.80
2006,09,24,07,11,7.80
2006,09,24,07,12,7.80
2006,09,24,07,13,7.80
2006,09,24,07,14,7.80
2006,09,24,07,15,7.90
2006,09,24,07,16,7.90
2006,09,24,07,17,7.90
2006,09,24,07,18,7.90
2006,09,24,07,19,7.90
2006,09,24,07,20,7.90
2006,09,24,07,21,7.80
2006,09,24,07,22,7.80
2006,09,24,07,23,7.80
2006,09,24,07,24,7.80
2006,09,24,07,25,7.80
2006,09,24,07,26,7.80
2006,09,24,07,27,7.80
2006,09,24,07,28,7.80
2006,09,24,07,29,7.80
2006,09,24,07,30,7.80
2006,09,24,07,31,7.80
2006,09,24,07,32,7.80
2006,09,24,07,33,7.80
2006,09,24,07,34,7.80
2006,09,24,07,35,7.80
2006,09,24,07,36,7.80
2006,09,24,07,37,7.80
2006,09,24,07,38,7.80
2006,09,24,07,39,7.90
2006,09,24,07,40,7.90
2006,09,24,07,41,7.90
2006,09,24,07,42,7.90
2006,09,24,07,43,8.00
2006,09,24,07,44,8.00
2006,09,24,07,45,8.00
2006,09,24,07,46,8.00
2006,09,24,07,47,8.10
2006,09,24,07,48,8.10
2006,09,24,07,49,8.10
2006,09,24,07,50,8.20
2006,09,24,07,51,8.20
2006,09,24,07,52,8.20
2006,09,24,07,53,8.30
2006,09,24,07,54,8.30
2006,09,24,07,55,8.30
2006,09,24,07,56,8.40
2006,09,24,07,57,8.50
2006,09,24,07,58,8.50
2006,09,24,07,59,8.60
2006,09,24,08,00,8.60
2006,09,24,08,01,8.70
2006,09,24,08,02,8.70
2006,09,24,08,03,8.80
2006,09,24,08,04,8.80
2006,09,24,08,05,8.90
2006,09,24,08,06,9.00
2006,09,24,08,07,9.10
2006,09,24,08,08,9.20
2006,09,24,08,09,9.20
2006,09,24,08,10,9.40
2006,09,24,08,11,9.50
2006,09,24,08,12,9.60
2006,09,24,08,13,9.80
2006,09,24,08,14,9.90
2006,09,24,08,15,10.10
2006,09,24,08,16,10.20
2006,09,24,08,17,10.40
2006,09,24,08,18,10.50
2006,09,24,08,19,10.70
2006,09,24,08,20,10.80
2006,09,24,08,21,10.90
2006,09,24,08,22,10.90
2006,09,24,08,23,11.00
2006,09,24,08,24,11.10
2006,09,24,08,25,11.10
2006,09,24,08,26,11.20
2006,09,24,08,27,11.30
2006,09,24,08,28,11.40
2006,09,24,08,29,11.50
2006,09,24,08,30,11.60
2006,09,24,08,31,11.70
2006,09,24,08,32,11.70
2006,09,24,08,33,11.80
2006,09,24,08,34,11.80
2006,09,24,08,35,11.90
2006,09,24,08,36,11.90
2006,09,24,08,37,12.10
2006,09,24,08,38,12.20
2006,09,24,08,39,12.30
2006,09,24,08,40,12.40
2006,09,24,08,41,12.50
2006,09,24,08,42,12.60
2006,09,24,08,43,12.60
2006,09,24,08,44,12.60
2006,09,24,08,45,12.70
2006,09,24,08,46,12.80
2006,09,24,08,47,12.80
2006,09,24,08,48,13.00
2006,09,24,08,49,13.10
2006,09,24,08,50,13.20
2006,09,24,08,51,13.30
2006,09,24,08,52,13.40
2006,09,24,08,53,13.50
2006,09,24,08,54,13.60
2006,09,24,08,55,13.70
2006,09,24,08,56,13.80
2006,09,24,08,57,13.90
2006,09,24,08,58,14.00
2006,09,24,08,59,14.10
2006,09,24,09,00,14.20
2006,09,24,09,01,14.20
2006,09,24,09,02,14.20
2006,09,24,09,03,14.30
2006,09,24,09,04,14.30
2006,09,24,09,05,14.40
2006,09,24,09,06,14.50
2006,09,24,09,07,14.60
2006,09,24,09,08,14.60
2006,09,24,09,09,14.70
2006,09,24,09,10,14.70
2006,09,24,09,11,14.80
2006,09,24,09,12,14.90
2006,09,24,09,13,15.00
2006,09,24,09,14,15.00
2006,09,24,09,15,15.00
2006,09,24,09,16,15.00
2006,09,24,09,17,15.20
2006,09,24,09,18,15.30
2006,09,24,09,19,15.40
2006,09,24,09,20,15.50
2006,09,24,09,21,15.60
2006,09,24,09,22,15.70
2006,09,24,09,23,15.80
2006,09,24,09,24,15.90
2006,09,24,09,25,16.00
2006,09,24,09,26,16.20
2006,09,24,09,27,16.30
2006,09,24,09,28,16.30
2006,09,24,09,29,16.40
2006,09,24,09,30,16.50
2006,09,24,09,31,16.70
2006,09,24,09,32,16.80
2006,09,24,09,33,16.90
2006,09,24,09,34,17.00
2006,09,24,09,35,17.10
2006,09,24,09,36,17.20
2006,09,24,09,37,17.20
2006,09,24,09,38,17.30
2006,09,24,09,39,17.30
2006,09,24,09,40,17.30
2006,09,24,09,41,17.30
2006,09,24,09,42,17.30
2006,09,24,09,43,17.20
2006,09,24,09,44,17.20
2006,09,24,09,45,17.20
2006,09,24,09,46,17.20
2006,09,24,09,47,17.30
2006,09,24,09,48,17.40
2006,09,24,09,49,17.60
2006,09,24,09,50,17.80
2006,09,24,09,51,17.90
2006,09,24,09,52,17.90
2006,09,24,09,53,18.00
2006,09,24,09,54,18.00
2006,09,24,09,55,18.00
2006,09,24,09,56,18.00
2006,09,24,09,57,18.10
2006,09,24,09,58,18.10
2006,09,24,09,59,18.10
2006,09,24,10,00,18.10
2006,09,24,10,01,18.20
2006,09,24,10,02,18.20
2006,09,24,10,03,18.20
2006,09,24,10,04,18.30
2006,09,24,10,05,18.40
2006,09,24,10,06,18.40
2006,09,24,10,07,18.40
2006,09,24,10,08,18.40
2006,09,24,10,09,18.50
2006,09,24,10,10,18.60
2006,09,24,10,11,18.60
2006,09,24,10,12,18.60
2006,09,24,10,13,18.60
2006,09,24,10,14,18.70
2006,09,24,10,15,18.70
2006,09,24,10,16,18.80
2006,09,24,10,17,18.80
2006,09,24,10,18,18.90
2006,09,24,10,19,18.90
2006,09,24,10,20,18.90
2006,09,24,10,21,18.90
2006,09,24,10,22,18.90
2006,09,24,10,23,19.00
2006,09,24,10,24,19.00
2006,09,24,10,25,19.00
2006,09,24,10,26,19.00
2006,09,24,10,27,18.90
2006,09,24,10,28,18.90
2006,09,24,10,29,18.90
2006,09,24,10,30,18.90
2006,09,24,10,31,18.90
2006,09,24,10,32,18.90
2006,09,24,10,33,18.90
2006,09,24,10,34,19.00
2006,09,24,10,35,19.00
2006,09,24,10,36,19.10
2006,09,24,10,37,19.10
2006,09,24,10,38,19.10
2006,09,24,10,39,19.00
2006,09,24,10,40,19.00
2006,09,24,10,41,19.00
2006,09,24,10,42,19.10
2006,09,24,10,43,19.10
2006,09,24,10,44,19.10
2006,09,24,10,45,19.10
2006,09,24,10,46,19.20
2006,09,24,10,47,19.20
2006,09,24,10,48,19.20
2006,09,24,10,49,19.20
2006,09,24,10,50,19.30
2006,09,24,10,51,19.30
2006,09,24,10,52,19.30
2006,09,24,10,53,19.30
2006,09,24,10,54,19.40
2006,09,24,10,55,19.40
2006,09,24,10,56,19.40
2006,09,24,10,57,19.40
2006,09,24,10,58,19.40
2006,09,24,10,59,19.40
2006,09,24,11,00,19.50
2006,09,24,11,01,19.50
2006,09,24,11,02,19.50
2006,09,24,11,03,19.40
2006,09,24,11,04,19.30
2006,09,24,11,05,19.20
2006,09,24,11,06,19.20
2006,09,24,11,07,19.20
2006,09,24,11,08,19.20
2006,09,24,11,09,19.30
2006,09,24,11,10,19.30
2006,09,24,11,11,19.20
2006,09,24,11,12,19.30
2006,09,24,11,13,19.40
2006,09,24,11,14,19.40
2006,09,24,11,15,19.40
2006,09,24,11,16,19.50
2006,09,24,11,17,19.50
2006,09,24,11,18,19.50
2006,09,24,11,19,19.40
2006,09,24,11,20,19.40
2006,09,24,11,21,19.40
2006,09,24,11,22,19.50
2006,09,24,11,23,19.60
2006,09,24,11,24,19.70
2006,09,24,11,25,19.70
2006,09,24,11,26,19.70
2006,09,24,11,27,19.80
2006,09,24,11,28,19.80
2006,09,24,11,29,19.80
2006,09,24,11,30,19.80
2006,09,24,11,31,19.80
2006,09,24,11,32,19.90
2006,09,24,11,33,19.90
2006,09,24,11,34,19.90
2006,09,24,11,35,19.90
2006,09,24,11,36,19.90
2006,09,24,11,37,19.90
2006,09,24,11,38,19.90
2006,09,24,11,39,20.00
2006,09,24,11,40,20.10
2006,09,24,11,41,20.20
2006,09,24,11,42,20.20
2006,09,24,11,43,20.10
2006,09,24,11,44,20.10
2006,09,24,11,45,20.10
2006,09,24,11,46,20.10
2006,09,24,11,47,20.10
2006,09,24,11,48,20.20
2006,09,24,11,49,20.20
2006,09,24,11,50,20.10
2006,09,24,11,51,20.00
2006,09,24,11,52,20.00
2006,09,24,11,53,20.00
2006,09,24,11,54,20.00
2006,09,24,11,55,20.00
2006,09,24,11,56,20.00
2006,09,24,11,57,20.00
2006,09,24,11,58,20.00
2006,09,24,11,59,20.10
2006,09,24,12,00,20.20
2006,09,24,12,01,20.30
2006,09,24,12,02,20.40
2006,09,24,12,03,20.40
2006,09,24,12,04,20.50
2006,09,24,12,05,20.50
2006,09,24,12,06,20.60
2006,09,24,12,07,20.60
2006,09,24,12,08,20.60
2006,09,24,12,09,20.50
2006,09,24,12,10,20.50
2006,09,24,12,11,20.40
2006,09,24,12,12,20.50
2006,09,24,12,13,20.60
2006,09,24,12,14,20.70
2006,09,24,12,15,20.70
2006,09,24,12,16,20.70
2006,09,24,12,17,20.70
2006,09,24,12,18,20.70
2006,09,24,12,19,20.70
2006,09,24,12,20,20.70
2006,09,24,12,21,20.80
2006,09,24,12,22,20.80
2006,09,24,12,23,20.90
2006,09,24,12,24,21.00
2006,09,24,12,25,21.10
2006,09,24,12,26,21.00
2006,09,24,12,27,21.00
2006,09,24,12,28,20.90
2006,09,24,12,29,20.90
2006,09,24,12,30,20.80
2006,09,24,12,31,20.90
2006,09,24,12,32,20.90
2006,09,24,12,33,20.80
2006,09,24,12,34,20.90
2006,09,24,12,35,21.00
2006,09,24,12,36,21.00
2006,09,24,12,37,21.10
2006,09,24,12,38,21.00
2006,09,24,12,39,20.90
2006,09,24,12,40,20.70
2006,09,24,12,41,20.50
2006,09,24,12,42,20.50
2006,09,24,12,43,20.50
2006,09,24,12,44,20.60
2006,09,24,12,45,20.60
2006,09,24,12,46,20.60
2006,09,24,12,47,20.70
2006,09,24,12,48,20.70
2006,09,24,12,49,20.70
2006,09,24,12,50,20.70
2006,09,24,12,51,20.70
2006,09,24,12,52,20.70
2006,09,24,12,53,20.70
2006,09,24,12,54,20.80
2006,09,24,12,55,20.90
2006,09,24,12,56,20.90
2006,09,24,12,57,20.90
2006,09,24,12,58,21.00
2006,09,24,12,59,21.00
2006,09,24,13,00,21.00
2006,09,24,13,01,21.00
2006,09,24,13,02,20.90
2006,09,24,13,03,20.80
2006,09,24,13,04,20.90
2006,09,24,13,05,21.10
2006,09,24,13,06,21.20
2006,09,24,13,07,21.40
2006,09,24,13,08,21.50
2006,09,24,13,09,21.50
2006,09,24,13,10,21.40
2006,09,24,13,11,21.30
2006,09,24,13,12,21.40
2006,09,24,13,13,21.40
2006,09,24,13,14,21.40
2006,09,24,13,15,21.40
2006,09,24,13,16,21.40
2006,09,24,13,17,21.40
2006,09,24,13,18,21.40
2006,09,24,13,19,21.40
2006,09,24,13,20,21.30
2006,09,24,13,21,21.30
2006,09,24,13,22,21.40
2006,09,24,13,23,21.40
2006,09,24,13,24,21.40
2006,09,24,13,25,21.50
2006,09,24,13,26,21.60
2006,09,24,13,27,21.50
2006,09,24,13,28,21.40
2006,09,24,13,29,21.30
2006,09,24,13,30,21.20
2006,09,24,13,31,21.20
2006,09,24,13,32,21.10
2006,09,24,13,33,21.10
2006,09,24,13,34,21.00
2006,09,24,13,35,20.90
2006,09,24,13,36,20.90
2006,09,24,13,37,21.00
2006,09,24,13,38,21.00
2006,09,24,13,39,21.00
2006,09,24,13,40,20.90
2006,09,24,13,41,20.90
2006,09,24,13,42,21.00
2006,09,24,13,43,21.20
2006,09,24,13,44,21.30
2006,09,24,13,45,21.40
2006,09,24,13,46,21.40
2006,09,24,13,47,21.40
2006,09,24,13,48,21.40
2006,09,24,13,49,21.50
2006,09,24,13,50,21.40
2006,09,24,13,51,21.40
2006,09,24,13,52,21.30
2006,09,24,13,53,21.20
2006,09,24,13,54,21.20
2006,09,24,13,55,21.30
2006,09,24,13,56,21.20
2006,09,24,13,57,21.00
2006,09,24,13,58,20.90
2006,09,24,13,59,20.80
2006,09,24,14,00,20.80
2006,09,24,14,01,20.80
2006,09,24,14,02,20.80
2006,09,24,14,03,20.90
2006,09,24,14,04,20.90
2006,09,24,14,05,20.90
2006,09,24,14,06,20.90
2006,09,24,14,07,20.90
2006,09,24,14,08,20.80
2006,09,24,14,09,20.90
2006,09,24,14,10,20.90
2006,09,24,14,11,21.00
2006,09,24,14,12,21.10
2006,09,24,14,13,21.10
2006,09,24,14,14,21.20
2006,09,24,14,15,21.20
2006,09,24,14,16,21.30
2006,09,24,14,17,21.30
2006,09,24,14,18,21.30
2006,09,24,14,19,21.20
2006,09,24,14,20,21.20
2006,09,24,14,21,21.10
2006,09,24,14,22,21.10
2006,09,24,14,23,21.20
2006,09,24,14,24,21.20
2006,09,24,14,25,21.20
2006,09,24,14,26,21.30
2006,09,24,14,27,21.40
2006,09,24,14,28,21.50
2006,09,24,14,29,21.60
2006,09,24,14,30,21.60
2006,09,24,14,31,21.50
2006,09,24,14,32,21.40
2006,09,24,14,33,21.40
2006,09,24,14,34,21.30
2006,09,24,14,35,21.20
2006,09,24,14,36,21.00
2006,09,24,14,37,20.90
2006,09,24,14,38,20.80
2006,09,24,14,39,20.80
2006,09,24,14,40,20.80
2006,09,24,14,41,20.80
2006,09,24,14,42,20.70
2006,09,24,14,43,20.70
2006,09,24,14,44,20.70
2006,09,24,14,45,20.70
2006,09,24,14,46,20.60
2006,09,24,14,47,20.60
2006,09,24,14,48,20.60
2006,09,24,14,49,20.60
2006,09,24,14,50,20.50
2006,09,24,14,51,20.60
2006,09,24,14,52,20.50
2006,09,24,14,53,20.40
2006,09,24,14,54,20.50
2006,09,24,14,55,20.60
2006,09,24,14,56,20.60
2006,09,24,14,57,20.70
2006,09,24,14,58,20.70
2006,09,24,14,59,20.80
2006,09,24,15,00,20.80
2006,09,24,15,01,20.80
2006,09,24,15,02,20.70
2006,09,24,15,03,20.60
2006,09,24,15,04,20.60
2006,09,24,15,05,20.50
2006,09,24,15,06,20.60
2006,09,24,15,07,20.70
2006,09,24,15,08,20.70
2006,09,24,15,09,20.70
2006,09,24,15,10,20.70
2006,09,24,15,11,20.70
2006,09,24,15,12,20.60
2006,09,24,15,13,20.60
2006,09,24,15,14,20.60
2006,09,24,15,15,20.70
2006,09,24,15,16,20.80
2006,09,24,15,17,20.90
2006,09,24,15,18,21.00
2006,09,24,15,19,21.10
2006,09,24,15,20,21.20
2006,09,24,15,21,21.20
2006,09,24,15,22,21.10
2006,09,24,15,23,21.20
2006,09,24,15,24,21.10
2006,09,24,15,25,21.20
2006,09,24,15,26,21.20
2006,09,24,15,27,21.30
2006,09,24,15,28,21.30
2006,09,24,15,29,21.40
2006,09,24,15,30,21.50
2006,09,24,15,31,21.60
2006,09,24,15,32,21.70
2006,09,24,15,33,21.70
2006,09,24,15,34,21.70
2006,09,24,15,35,21.70
2006,09,24,15,36,21.60
2006,09,24,15,37,21.50
2006,09,24,15,38,21.40
2006,09,24,15,39,21.30
2006,09,24,15,40,21.30
2006,09,24,15,41,21.30
2006,09,24,15,42,21.30
2006,09,24,15,43,21.40
2006,09,24,15,44,21.40
2006,09,24,15,45,21.30
2006,09,24,15,46,21.30
2006,09,24,15,47,21.30
2006,09,24,15,48,21.20
2006,09,24,15,49,21.20
2006,09,24,15,50,21.20
2006,09,24,15,51,21.20
2006,09,24,15,52,21.30
2006,09,24,15,53,21.30
2006,09,24,15,54,21.30
2006,09,24,15,55,21.30
2006,09,24,15,56,21.30
2006,09,24,15,57,21.30
2006,09,24,15,58,21.30
2006,09,24,15,59,21.30
2006,09,24,16,00,21.20
2006,09,24,16,01,21.20
2006,09,24,16,02,21.10
2006,09,24,16,03,21.10
2006,09,24,16,04,21.10
2006,09,24,16,05,21.10
2006,09,24,16,06,21.10
2006,09,24,16,07,21.10
2006,09,24,16,08,21.10
2006,09,24,16,09,21.10
2006,09,24,16,10,21.20
2006,09,24,16,11,21.20
2006,09,24,16,12,21.20
2006,09,24,16,13,21.20
2006,09,24,16,14,21.20
2006,09,24,16,15,21.10
2006,09,24,16,16,21.10
2006,09,24,16,17,21.10
2006,09,24,16,18,21.10
2006,09,24,16,19,21.10
2006,09,24,16,20,21.10
2006,09,24,16,21,21.10
2006,09,24,16,22,21.20
2006,09,24,16,23,21.10
2006,09,24,16,24,21.10
2006,09,24,16,25,21.10
2006,09,24,16,26,21.10
2006,09,24,16,27,21.10
2006,09,24,16,28,21.00
2006,09,24,16,29,21.00
2006,09,24,16,30,21.00
2006,09,24,16,31,21.00
2006,09,24,16,32,20.90
2006,09,24,16,33,20.90
2006,09,24,16,34,20.90
2006,09,24,16,35,20.90
2006,09,24,16,36,20.90
2006,09,24,16,37,21.00
2006,09,24,16,38,21.00
2006,09,24,16,39,21.00
2006,09,24,16,40,21.10
2006,09,24,16,41,21.10
2006,09,24,16,42,21.10
2006,09,24,16,43,21.20
2006,09,24,16,44,21.20
2006,09,24,16,45,21.20
2006,09,24,16,46,21.20
2006,09,24,16,47,21.20
2006,09,24,16,48,21.20
2006,09,24,16,49,21.20
2006,09,24,16,50,21.20
2006,09,24,16,51,21.20
2006,09,24,16,52,21.10
2006,09,24,16,53,21.10
2006,09,24,16,54,21.10
2006,09,24,16,55,21.10
2006,09,24,16,56,21.00
2006,09,24,16,57,21.00
2006,09,24,16,58,21.00
2006,09,24,16,59,21.00
2006,09,24,17,00,21.00
2006,09,24,17,01,20.90
2006,09,24,17,02,20.90
2006,09,24,17,03,20.90
2006,09,24,17,04,20.80
2006,09,24,17,05,20.80
2006,09,24,17,06,20.80
2006,09,24,17,07,20.70
2006,09,24,17,08,20.70
2006,09,24,17,09,20.80
2006,09,24,17,10,20.80
2006,09,24,17,11,20.80
2006,09,24,17,12,20.70
2006,09,24,17,13,20.70
2006,09,24,17,14,20.70
2006,09,24,17,15,20.70
2006,09,24,17,16,20.70
2006,09,24,17,17,20.70
2006,09,24,17,18,20.70
2006,09,24,17,19,20.70
2006,09,24,17,20,20.70
2006,09,24,17,21,20.60
2006,09,24,17,22,20.60
2006,09,24,17,23,20.60
2006,09,24,17,24,20.60
2006,09,24,17,25,20.60
2006,09,24,17,26,20.60
2006,09,24,17,27,20.50
2006,09,24,17,28,20.40
2006,09,24,17,29,20.40
2006,09,24,17,30,20.30
2006,09,24,17,31,20.30
2006,09,24,17,32,20.30
2006,09,24,17,33,20.30
2006,09,24,17,34,20.20
2006,09,24,17,35,20.20
2006,09,24,17,36,20.20
2006,09,24,17,37,20.20
2006,09,24,17,38,20.10